[[{"header":{"parameterUnit":"m.s-1","parameterCategory":1,"la1":30.2991,"la2":30.254,"lo1":-89.0895,"lo2":-89.0444,"dy":0.0017,"dx":0.0017,"nx":28,"ny":28,"refTime":"2025-01-08T09:00:00:Z","depth":0,"parameterNumber":2,"parameterNumberName":"U-component_of_WINDS"},"data":[0,0,0,0,0,0,0,0,0,0,0,0,0,0,0,0,0,0,0,0,0,0,0,0,0,0,0,0,0,0,0,0,0,0,0,0,0,0,0,0,0,0,0,0,0,0,0,0,0,0,0,0,0,0,0,0,0,0,-0.616,-0.6161,0,-0.621,-0.621,-0.6211,-0.6174,-0.6172,-0.617,-0.6169,-0.6222,-0.6225,-0.6228,0,0,0,0,0,0,0,0,0,0,0,0,0,-0.6034,-0.6037,-0.616,-0.6161,-0.6161,-0.621,-0.621,-0.6211,-0.6174,-0.6172,-0.617,-0.6168,-0.6221,-0.6225,-0.6228,0,0,0,0,0,0,0,0,0,0,0,0,0,-0.6087,-0.6038,-0.616,-0.6149,-0.6148,-0.6209,-0.621,-0.6211,-0.6174,-0.6172,-0.617,-0.6167,-0.622,-0.6224,-0.6229,-0.6305,0,0,-0.6242,-0.6244,0,0,0,0,0,0,0,0,-0.6084,-0.6092,-0.615,-0.6149,-0.6149,-0.6183,-0.6185,-0.6243,-0.6175,-0.6165,-0.6169,-0.6166,-0.6211,-0.6216,-0.6231,-0.6307,-0.6309,-0.6243,-0.6245,-0.6247,-0.6248,0,0,0,0,0,0,0,-0.608,-0.6089,-0.618,-0.6151,-0.615,-0.6141,-0.6146,-0.6196,-0.6201,-0.6165,-0.6163,-0.6169,-0.6211,-0.6227,-0.6232,-0.631,-0.6242,-0.6246,-0.6249,-0.6251,-0.645,-0.6453,0,0,0,0,0,0,-0.6078,-0.6087,-0.6178,-0.6181,-0.611,-0.6146,-0.6151,-0.6175,-0.62,-0.6202,-0.6171,-0.6167,-0.6221,-0.6227,-0.6234,-0.6324,-0.6247,-0.6251,-0.6254,-0.6448,-0.6451,-0.6454,0,0,0,0,0,0,-0.6075,-0.6086,-0.6176,-0.6133,-0.6144,-0.615,-0.6177,-0.6177,-0.6193,-0.6205,-0.6206,-0.6187,-0.6219,-0.6228,-0.6287,-0.6326,-0.6253,-0.6257,-0.6444,-0.6448,-0.6452,-0.6506,0,0,0,0,0,0,-0.6072,-0.6085,-0.6114,-0.6134,-0.6146,-0.6229,-0.618,-0.618,-0.62,-0.6196,-0.622,-0.6221,-0.6218,-0.6281,-0.6291,-0.633,-0.6261,-0.6441,-0.6446,-0.6451,-0.6501,-0.6511,-0.652,0,0,0,0,0,-0.6067,-0.6128,-0.6116,-0.6127,-0.6183,-0.6231,-0.6238,-0.6232,-0.6204,-0.6233,-0.624,-0.622,-0.6319,-0.6287,-0.6299,-0.634,-0.6439,-0.6445,-0.6451,-0.6497,-0.6509,-0.652,0,0,0,0,0,0,-0.6115,-0.6131,-0.6117,-0.6187,-0.6207,-0.6224,-0.6261,-0.6246,-0.6276,-0.627,-0.6262,-0.6268,-0.633,-0.634,-0.6304,-0.6414,-0.6374,-0.6383,-0.6405,-0.6418,-0.6427,-0.6424,-0.6264,0,0,0,0,0,-0.6133,-0.617,-0.6182,-0.6242,-0.6253,-0.6255,-0.6276,-0.6269,-0.6291,-0.63,-0.6312,-0.6334,-0.637,-0.6394,-0.6428,-0.6501,-0.6506,-0.6535,-0.6545,-0.6553,-0.6561,-0.66,-0.6613,-0.6473,-0.6473,-0.6473,0,0,-0.6171,-0.6185,-0.6209,-0.6252,-0.6267,-0.6307,-0.6263,-0.6307,-0.6336,-0.6307,-0.6364,-0.6373,-0.6397,-0.6464,-0.6494,-0.6474,-0.66,-0.656,-0.6567,-0.6571,-0.6608,-0.6621,-0.6633,-0.6477,-0.6477,-0.6476,0,0,-0.6262,-0.6276,-0.6327,-0.6342,-0.6366,-0.6366,-0.6379,-0.6398,-0.6402,-0.6458,-0.6437,-0.6472,-0.6534,-0.6552,-0.6569,-0.6664,-0.6647,-0.6675,-0.6727,-0.6765,-0.6776,-0.6786,-0.682,-0.6832,-0.6682,-0.6683,-0.6683,0,-0.6308,-0.6365,-0.6355,-0.64,-0.642,-0.6393,-0.6445,-0.6461,-0.6494,-0.6509,-0.6486,-0.6562,-0.6577,-0.6647,-0.667,-0.6684,-0.6698,-0.6673,-0.6775,-0.6785,-0.6794,-0.6826,-0.6839,-0.6686,-0.6685,-0.6685,-0.6685,0,-0.642,-0.646,-0.6499,-0.6531,-0.6554,-0.6602,-0.66,-0.6624,-0.6615,-0.6618,-0.6675,-0.6691,-0.6727,-0.6743,-0.6735,-0.6812,-0.6799,-0.6776,-0.6736,-0.681,-0.6841,-0.6853,-0.6691,-0.6689,-0.6688,-0.6688,0,0,-0.6545,-0.6568,-0.6583,-0.6597,-0.6619,-0.665,-0.6696,-0.6731,-0.6752,-0.6775,-0.6815,-0.6866,-0.6844,-0.6864,-0.6857,-0.689,-0.6965,-0.6863,-0.6863,-0.6882,-0.7051,-0.7069,-0.7084,-0.6952,-0.6955,-0.6957,-0.7049,0,-0.6637,-0.6718,-0.6709,-0.6786,-0.6823,-0.6797,-0.6837,-0.6855,-0.6859,-0.6891,-0.6894,-0.6932,-0.6899,-0.6911,-0.6943,-0.6949,-0.6999,-0.6942,-0.699,-0.6991,-0.6986,-0.71,-0.712,-0.7207,-0.7061,-0.7063,-0.7064,0,-0.6757,-0.6783,-0.6863,-0.6878,-0.6894,-0.693,-0.696,-0.6991,-0.701,-0.701,-0.7031,-0.7018,-0.7064,-0.7022,-0.7086,-0.7047,-0.7066,-0.7072,-0.7075,-0.708,-0.7034,-0.711,-0.7234,-0.7247,-0.7083,-0.7081,-0.708,0,-0.684,-0.6895,-0.695,-0.6963,-0.6982,-0.7008,-0.7018,-0.7035,-0.7055,-0.7081,-0.7095,-0.7126,-0.7144,-0.7168,-0.7163,-0.7133,-0.7229,-0.7186,-0.7231,-0.7231,-0.7254,-0.7253,-0.7384,-0.7264,-0.7263,-0.7263,-0.7263,0,-0.6945,-0.6996,-0.6988,-0.7022,-0.7078,-0.7066,-0.7122,-0.7128,-0.7143,-0.7177,-0.7156,-0.719,-0.7181,-0.7214,-0.721,-0.7264,-0.7271,-0.7273,-0.7272,-0.7276,-0.7276,-0.729,-0.7284,-0.7267,-0.7266,-0.7265,-0.7265,0,-0.705,-0.7046,-0.7105,-0.7117,-0.7121,-0.7162,-0.7173,-0.7205,-0.7205,-0.7249,-0.7259,-0.7261,-0.7298,-0.7295,-0.7337,-0.7334,-0.7401,-0.7392,-0.7394,-0.7393,-0.7438,-0.7434,-0.7584,-0.7603,-0.7469,-0.747,-0.7471,0,-0.7118,-0.7156,-0.7172,-0.7193,-0.7204,-0.7239,-0.7259,-0.7249,-0.7271,-0.7295,-0.7324,-0.7359,-0.7387,-0.7447,-0.7452,-0.7484,-0.7477,-0.7527,-0.7481,-0.7484,-0.7478,-0.7477,-0.7481,-0.7536,-0.7538,-0.7539,-0.754,0,-0.7239,-0.7235,-0.7265,-0.7294,-0.7319,-0.7342,-0.7362,-0.7381,-0.7372,-0.7398,-0.7435,-0.7457,-0.7498,-0.7534,-0.7563,-0.7573,-0.7556,-0.7554,-0.7566,-0.7571,-0.7572,-0.7573,-0.742,-0.7551,-0.755,-0.7549,-0.7549,-0.7548,-0.7328,-0.7361,-0.7377,-0.741,-0.7424,-0.7443,-0.7474,-0.7477,-0.7508,-0.7541,-0.7532,-0.7574,-0.7591,-0.7629,-0.7642,-0.7674,-0.7657,-0.7674,-0.7679,-0.7684,-0.7689,-0.7565,-0.768,-0.7679,-0.7679,-0.7679,-0.7679,0,-0.745,-0.7458,-0.7489,-0.7517,-0.7544,-0.7523,-0.7544,-0.7567,-0.7604,-0.7621,-0.7648,-0.7691,-0.7724,-0.773,-0.7762,-0.7787,-0.778,-0.7796,-0.7795,-0.7797,-0.7703,-0.769,-0.7801,-0.7801,-0.7801,-0.7801,-0.7801,-0.7801,-0.7516,-0.7569,-0.7567,-0.7626,-0.7634,-0.7675,-0.7688,-0.7706,-0.7719,-0.7767,-0.7794,-0.7797,-0.781,-0.7842,-0.7872,-0.7873,-0.7886,-0.7906,-0.7904,-0.7816,-0.7804,-0.7792,-0.778,-0.7908,-0.7908,-0.7995,-0.7996,-0.7996]},{"header":{"parameterUnit":"m.s-1","parameterCategory":1,"la1":30.2991,"la2":30.254,"lo1":-89.0895,"lo2":-89.0444,"dy":0.0017,"dx":0.0017,"nx":28,"ny":28,"refTime":"2025-01-08T09:00:00:Z","depth":0,"parameterNumber":3,"parameterNumberName":"V-component_of_WINDS"},"data":[0,0,0,0,0,0,0,0,0,0,0,0,0,0,0,0,0,0,0,0,0,0,0,0,0,0,0,0,0,0,0,0,0,0,0,0,0,0,0,0,0,0,0,0,0,0,0,0,0,0,0,0,0,0,0,0,0,0,-6.6728,-6.673,0,-6.6851,-6.6853,-6.6854,-6.6776,-6.6772,-6.6768,-6.6765,-6.6885,-6.6892,-6.6898,0,0,0,0,0,0,0,0,0,0,0,0,0,-6.6419,-6.6425,-6.6728,-6.673,-6.6731,-6.6851,-6.6853,-6.6854,-6.6776,-6.6772,-6.6767,-6.6763,-6.6883,-6.6891,-6.6899,0,0,0,0,0,0,0,0,0,0,0,0,0,-6.6549,-6.6427,-6.6728,-6.6707,-6.6706,-6.6851,-6.6853,-6.6855,-6.6777,-6.6772,-6.6766,-6.6761,-6.6881,-6.689,-6.69,-6.707,0,0,-6.693,-6.6935,0,0,0,0,0,0,0,0,-6.6541,-6.656,-6.6708,-6.6709,-6.6708,-6.6793,-6.6788,-6.6927,-6.6779,-6.675,-6.6765,-6.6758,-6.6859,-6.687,-6.6905,-6.7076,-6.7081,-6.6931,-6.6937,-6.6941,-6.6944,0,0,0,0,0,0,0,-6.6533,-6.6554,-6.6777,-6.6711,-6.671,-6.6689,-6.6701,-6.6814,-6.6833,-6.6752,-6.6747,-6.6763,-6.6857,-6.6895,-6.6907,-6.7083,-6.6931,-6.694,-6.6946,-6.695,-6.7398,-6.7404,0,0,0,0,0,0,-6.6526,-6.6547,-6.6773,-6.678,-6.661,-6.6699,-6.6713,-6.6771,-6.6832,-6.6836,-6.6767,-6.6759,-6.6881,-6.6896,-6.6911,-6.7114,-6.6941,-6.6951,-6.6956,-6.7392,-6.7399,-6.7406,0,0,0,0,0,0,-6.652,-6.6547,-6.6768,-6.6663,-6.6689,-6.671,-6.6776,-6.6776,-6.6814,-6.6843,-6.6846,-6.6803,-6.6877,-6.6897,-6.7031,-6.7117,-6.6955,-6.6964,-6.7385,-6.7394,-6.7403,-6.7521,0,0,0,0,0,0,-6.6511,-6.6545,-6.6612,-6.6665,-6.6695,-6.6889,-6.6781,-6.6783,-6.6832,-6.6822,-6.6878,-6.6881,-6.6875,-6.7017,-6.7041,-6.7127,-6.6972,-6.7377,-6.7389,-6.74,-6.751,-6.7533,-6.7553,0,0,0,0,0,-6.6501,-6.664,-6.6616,-6.6643,-6.6779,-6.6894,-6.6911,-6.6902,-6.684,-6.6906,-6.6924,-6.688,-6.7104,-6.7031,-6.7058,-6.7149,-6.7372,-6.7386,-6.7399,-6.75,-6.7529,-6.7553,0,0,0,0,0,0,-6.6595,-6.6646,-6.662,-6.6781,-6.6834,-6.688,-6.6964,-6.6932,-6.7003,-6.699,-6.6974,-6.6987,-6.7127,-6.7151,-6.707,-6.7316,-6.7228,-6.7247,-6.7295,-6.7323,-6.7344,-6.7335,-6.698,0,0,0,0,0,-6.6634,-6.6725,-6.6764,-6.6902,-6.693,-6.6943,-6.6992,-6.6981,-6.7034,-6.7055,-6.7083,-6.7135,-6.7216,-6.7271,-6.7348,-6.7512,-6.7522,-6.7588,-6.7609,-6.7627,-6.7644,-6.7731,-6.776,-6.745,-6.745,-6.745,0,0,-6.6717,-6.6756,-6.6814,-6.6922,-6.6962,-6.7054,-6.6962,-6.7063,-6.7131,-6.707,-6.7199,-6.7221,-6.7277,-6.7428,-6.7495,-6.7452,-6.7732,-6.7644,-6.7658,-6.7665,-6.7748,-6.7777,-6.7803,-6.7459,-6.7457,-6.7456,0,0,-6.6915,-6.6954,-6.7073,-6.7115,-6.7176,-6.7183,-6.7212,-6.7263,-6.7276,-6.7406,-6.7361,-6.744,-6.7582,-6.7623,-6.7663,-6.7875,-6.7836,-6.79,-6.8013,-6.8099,-6.8123,-6.8145,-6.822,-6.8247,-6.7917,-6.7917,-6.7917,0,-6.7009,-6.7149,-6.7137,-6.7243,-6.7291,-6.7241,-6.736,-6.74,-6.7483,-6.7516,-6.7466,-6.7642,-6.7677,-6.7835,-6.7887,-6.7921,-6.7951,-6.7894,-6.8121,-6.8143,-6.8162,-6.8233,-6.8262,-6.7925,-6.7924,-6.7923,-6.7922,0,-6.7261,-6.7358,-6.7446,-6.7529,-6.7587,-6.7698,-6.7702,-6.7761,-6.7744,-6.7756,-6.7887,-6.7926,-6.801,-6.8046,-6.803,-6.8203,-6.8174,-6.8123,-6.8034,-6.82,-6.8266,-6.8293,-6.7935,-6.7932,-6.793,-6.7928,0,0,-6.7523,-6.7598,-6.763,-6.7667,-6.773,-6.7804,-6.7912,-6.7995,-6.8046,-6.8104,-6.8193,-6.8313,-6.8267,-6.8312,-6.8299,-6.8374,-6.8539,-6.8314,-6.8315,-6.8354,-6.8729,-6.8767,-6.8799,-6.8513,-6.8518,-6.8522,-6.8724,0,-6.7723,-6.7915,-6.7907,-6.8085,-6.8173,-6.8126,-6.822,-6.8268,-6.8281,-6.8356,-6.837,-6.8455,-6.8388,-6.8414,-6.8487,-6.8504,-6.8614,-6.8489,-6.8594,-6.8598,-6.8582,-6.8834,-6.8874,-6.9063,-6.875,-6.8754,-6.8758,0,-6.7984,-6.8053,-6.824,-6.8289,-6.8326,-6.8411,-6.8486,-6.8559,-6.8611,-6.8615,-6.8666,-6.8641,-6.8747,-6.8656,-6.8802,-6.8717,-6.8759,-6.8774,-6.8781,-6.879,-6.8688,-6.8849,-6.9123,-6.9151,-6.8799,-6.8795,-6.8792,0,-6.8156,-6.8294,-6.8424,-6.8457,-6.8518,-6.8578,-6.8606,-6.8653,-6.8703,-6.8767,-6.8799,-6.8875,-6.8916,-6.8974,-6.897,-6.8904,-6.9117,-6.9026,-6.9122,-6.9123,-6.917,-6.9167,-6.9454,-6.9198,-6.9197,-6.9197,-6.9196,0,-6.8381,-6.8497,-6.8502,-6.8582,-6.8709,-6.8698,-6.8824,-6.8845,-6.8887,-6.8968,-6.8931,-6.9008,-6.8997,-6.9073,-6.907,-6.9191,-6.9209,-6.9214,-6.9212,-6.9218,-6.9217,-6.9245,-6.9232,-6.9204,-6.9202,-6.9201,-6.92,0,-6.8595,-6.8603,-6.8741,-6.8787,-6.8801,-6.8893,-6.8932,-6.9006,-6.9016,-6.9119,-6.9142,-6.9157,-6.9244,-6.9245,-6.9345,-6.9343,-6.949,-6.9473,-6.9473,-6.947,-6.9566,-6.9557,-6.9881,-6.9922,-6.964,-6.9643,-6.9645,0,-6.8738,-6.8827,-6.8883,-6.8935,-6.8967,-6.9052,-6.9103,-6.9095,-6.9149,-6.9215,-6.9281,-6.9365,-6.9432,-6.9574,-6.9592,-6.9667,-6.9651,-6.976,-6.9662,-6.9665,-6.9652,-6.9647,-6.9655,-6.9779,-6.9782,-6.9784,-6.9786,0,-6.8992,-6.8991,-6.9067,-6.9145,-6.9207,-6.9268,-6.9323,-6.9368,-6.9365,-6.9427,-6.9518,-6.957,-6.9672,-6.9755,-6.9828,-6.9854,-6.982,-6.9817,-6.9843,-6.985,-6.9846,-6.9849,-6.9525,-6.981,-6.9807,-6.9806,-6.9804,-6.9803,-6.9174,-6.925,-6.9302,-6.9387,-6.9428,-6.9481,-6.9553,-6.9572,-6.9647,-6.9731,-6.972,-6.982,-6.9868,-6.9962,-6.9994,-7.0071,-7.0033,-7.0071,-7.0081,-7.009,-7.0101,-6.9835,-7.0084,-7.0083,-7.0083,-7.0082,-7.0082,0,-6.9425,-6.9456,-6.9535,-6.9614,-6.9681,-6.9645,-6.9703,-6.9761,-6.985,-6.9899,-6.9966,-7.0068,-7.0148,-7.0173,-7.025,-7.0306,-7.0292,-7.0327,-7.0322,-7.0329,-7.013,-7.01,-7.0337,-7.0337,-7.0337,-7.0337,-7.0337,-7.0337,-6.9564,-6.969,-6.9696,-6.9841,-6.9869,-6.9969,-7.0005,-7.0053,-7.0091,-7.0208,-7.0275,-7.0291,-7.0329,-7.0409,-7.048,-7.0485,-7.0515,-7.0556,-7.0554,-7.0368,-7.0343,-7.0318,-7.0289,-7.0562,-7.0563,-7.0746,-7.0747,-7.0749]}]]